When you browse on this site, cookies collect data to enhance your experience and personalize the content and advertising you see.
Visit our Privacy Policy to learn more. By continuing to use the site, you agree to this use of cookies and data.

Météo par heure à Sopron

Ce jour, 14 Juillet, Mardi

Heure Température Précipitation Vent Pression Humidité
00:00 +14°C° 0 mm 1 m/s 748 mmHg 76%
01:00 +14°C° 0 mm 1 m/s 748 mmHg 78%
02:00 +13°C° 0 mm 1 m/s 748 mmHg 78%
03:00 +13°C° 0 mm 1 m/s 748 mmHg 79%
04:00 +13°C° 0 mm 1 m/s 747 mmHg 80%
05:00 +14°C° 0 mm 1 m/s 747 mmHg 75%
06:00 +15°C° 0 mm 1 m/s 747 mmHg 71%
07:00 +16°C° 0 mm 1 m/s 747 mmHg 66%
08:00 +19°C° 0 mm 1 m/s 747 mmHg 62%
09:00 +20°C° 0 mm 1 m/s 747 mmHg 58%
10:00 +21°C° 0 mm 2 m/s 747 mmHg 53%
11:00 +23°C° 0 mm 2 m/s 746 mmHg 50%
12:00 +24°C° 0 mm 2 m/s 746 mmHg 47%
13:00 +25°C° 0 mm 2 m/s 746 mmHg 44%
14:00 +25°C° 0 mm 3 m/s 745 mmHg 44%
15:00 +25°C° 0 mm 3 m/s 745 mmHg 44%
16:00 +25°C° 0 mm 3 m/s 744 mmHg 44%
17:00 +24°C° 0 mm 3 m/s 744 mmHg 51%
18:00 +21°C° 0 mm 3 m/s 744 mmHg 57%
19:00 +20°C° 0 mm 3 m/s 744 mmHg 64%
20:00 +19°C° 0 mm 3 m/s 744 mmHg 66%
21:00 +17°C° 0 mm 3 m/s 744 mmHg 69%
22:00 +16°C° 0 mm 3 m/s 744 mmHg 72%
23:00 +16°C° 0 mm 3 m/s 745 mmHg 73%

Demain, 15 Juillet, Mercredi

Heure Température Précipitation Vent Pression Humidité
00:00 +14°C° 0 mm 3 m/s 745 mmHg 73%
01:00 +14°C° 0 mm 3 m/s 745 mmHg 74%
02:00 +14°C° 0 mm 3 m/s 744 mmHg 74%
03:00 +13°C° 0 mm 3 m/s 744 mmHg 75%
04:00 +13°C° 0 mm 3 m/s 744 mmHg 75%
05:00 +14°C° 0 mm 3 m/s 744 mmHg 72%
06:00 +17°C° 0 mm 3 m/s 744 mmHg 68%
07:00 +18°C° 0 mm 3 m/s 744 mmHg 64%
08:00 +20°C° 0 mm 3 m/s 744 mmHg 59%
09:00 +22°C° 0 mm 3 m/s 744 mmHg 54%
10:00 +23°C° 0 mm 4 m/s 744 mmHg 49%
11:00 +25°C° 0 mm 4 m/s 744 mmHg 47%
12:00 +26°C° 0 mm 4 m/s 744 mmHg 45%
13:00 +27°C° 0 mm 4 m/s 744 mmHg 44%
14:00 +27°C° 0.1 mm 4 m/s 743 mmHg 44%
15:00 +27°C° 0.1 mm 3 m/s 743 mmHg 45%
16:00 +26°C° 0.1 mm 3 m/s 743 mmHg 46%
17:00 +25°C° 0 mm 3 m/s 743 mmHg 51%
18:00 +24°C° 0 mm 2 m/s 743 mmHg 56%
19:00 +23°C° 0 mm 2 m/s 743 mmHg 61%
20:00 +21°C° 0 mm 2 m/s 743 mmHg 62%
21:00 +20°C° 0 mm 2 m/s 743 mmHg 63%
22:00 +19°C° 0 mm 2 m/s 743 mmHg 64%
23:00 +19°C° 0 mm 2 m/s 743 mmHg 66%

Après-demain, 16 Juillet, Jeudi

Heure Température Précipitation Vent Pression Humidité
00:00 +18°C° 0 mm 2 m/s 744 mmHg 68%
01:00 +18°C° 0 mm 2 m/s 744 mmHg 69%
02:00 +18°C° 0 mm 2 m/s 744 mmHg 72%
03:00 +18°C° 0 mm 3 m/s 744 mmHg 74%
04:00 +18°C° 0 mm 3 m/s 744 mmHg 77%
05:00 +18°C° 0 mm 3 m/s 744 mmHg 77%
06:00 +19°C° 0 mm 4 m/s 744 mmHg 76%
07:00 +19°C° 0 mm 4 m/s 744 mmHg 76%
08:00 +20°C° 0 mm 4 m/s 745 mmHg 68%
09:00 +22°C° 0 mm 4 m/s 745 mmHg 60%
10:00 +25°C° 0 mm 4 m/s 745 mmHg 51%
11:00 +25°C° 0 mm 4 m/s 745 mmHg 49%
12:00 +26°C° 0 mm 5 m/s 745 mmHg 47%
13:00 +26°C° 0 mm 5 m/s 745 mmHg 45%
14:00 +26°C° 0.1 mm 5 m/s 745 mmHg 47%
15:00 +26°C° 0.1 mm 5 m/s 744 mmHg 48%
16:00 +25°C° 0.1 mm 5 m/s 744 mmHg 49%
17:00 +23°C° 0 mm 5 m/s 744 mmHg 53%
18:00 +22°C° 0 mm 5 m/s 744 mmHg 57%
19:00 +21°C° 0 mm 4 m/s 744 mmHg 61%
20:00 +20°C° 0 mm 4 m/s 745 mmHg 62%
21:00 +20°C° 0 mm 4 m/s 745 mmHg 63%
22:00 +19°C° 0 mm 4 m/s 745 mmHg 64%
23:00 +19°C° 0 mm 5 m/s 745 mmHg 66%

17 Juillet, Vendredi

Heure Température Précipitation Vent Pression Humidité
00:00 +17°C° 0 mm 5 m/s 745 mmHg 68%
01:00 +17°C° 0 mm 5 m/s 745 mmHg 70%
02:00 +17°C° 0 mm 5 m/s 745 mmHg 71%
03:00 +17°C° 0 mm 4 m/s 745 mmHg 72%
04:00 +17°C° 0 mm 4 m/s 744 mmHg 73%
05:00 +17°C° 0 mm 4 m/s 744 mmHg 73%
06:00 +18°C° 0 mm 3 m/s 744 mmHg 73%
07:00 +18°C° 0 mm 3 m/s 745 mmHg 72%
08:00 +18°C° 0.1 mm 3 m/s 745 mmHg 73%
09:00 +18°C° 0.1 mm 2 m/s 745 mmHg 74%
10:00 +18°C° 0.1 mm 2 m/s 745 mmHg 75%
11:00 +18°C° 0.2 mm 2 m/s 745 mmHg 73%
12:00 +19°C° 0.2 mm 2 m/s 744 mmHg 71%
13:00 +20°C° 0.2 mm 2 m/s 744 mmHg 70%
14:00 +21°C° 0.2 mm 2 m/s 744 mmHg 64%
15:00 +22°C° 0.2 mm 3 m/s 744 mmHg 59%
16:00 +24°C° 0.2 mm 3 m/s 744 mmHg 54%
17:00 +21°C° 0.3 mm 3 m/s 744 mmHg 61%
18:00 +20°C° 0.3 mm 3 m/s 744 mmHg 68%
19:00 +19°C° 0.3 mm 3 m/s 744 mmHg 76%
20:00 +18°C° 0.4 mm 3 m/s 744 mmHg 78%
21:00 +17°C° 0.4 mm 3 m/s 744 mmHg 81%
22:00 +17°C° 0.4 mm 3 m/s 745 mmHg 84%
23:00 +16°C° 0.5 mm 3 m/s 745 mmHg 85%

18 Juillet, Samedi

Heure Température Précipitation Vent Pression Humidité
00:00 +16°C° 0.5 mm 3 m/s 745 mmHg 87%
01:00 +16°C° 0.5 mm 3 m/s 745 mmHg 88%
02:00 +16°C° 0.6 mm 3 m/s 745 mmHg 89%
03:00 +14°C° 0.6 mm 3 m/s 745 mmHg 89%
04:00 +14°C° 0.6 mm 3 m/s 745 mmHg 89%
05:00 +15°C° 0.1 mm 4 m/s 745 mmHg 86%
06:00 +15°C° 0.1 mm 4 m/s 745 mmHg 84%
07:00 +16°C° 0.1 mm 5 m/s 745 mmHg 81%
08:00 +17°C° 0.6 mm 5 m/s 745 mmHg 76%
09:00 +19°C° 0.6 mm 5 m/s 745 mmHg 71%
10:00 +20°C° 0.6 mm 5 m/s 745 mmHg 65%
11:00 +21°C° 0.9 mm 5 m/s 745 mmHg 64%
12:00 +21°C° 0.9 mm 4 m/s 745 mmHg 62%
13:00 +22°C° 0.9 mm 4 m/s 744 mmHg 61%
14:00 +22°C° 0.5 mm 4 m/s 744 mmHg 60%
15:00 +22°C° 0.5 mm 4 m/s 744 mmHg 59%
16:00 +22°C° 0.5 mm 4 m/s 744 mmHg 58%
17:00 +21°C° 0.1 mm 3 m/s 744 mmHg 63%
18:00 +21°C° 0.1 mm 3 m/s 744 mmHg 67%
19:00 +20°C° 0.1 mm 2 m/s 744 mmHg 71%
20:00 +19°C° 0.1 mm 2 m/s 744 mmHg 74%
21:00 +18°C° 0.1 mm 2 m/s 745 mmHg 76%
22:00 +17°C° 0.1 mm 2 m/s 745 mmHg 79%
23:00 +16°C° 0 mm 2 m/s 745 mmHg 79%

19 Juillet, Dimanche

Heure Température Précipitation Vent Pression Humidité
00:00 +16°C° 0 mm 2 m/s 745 mmHg 80%
01:00 +16°C° 0 mm 3 m/s 745 mmHg 80%
02:00 +16°C° 0 mm 2 m/s 745 mmHg 82%
03:00 +15°C° 0 mm 2 m/s 745 mmHg 83%
04:00 +15°C° 0 mm 2 m/s 745 mmHg 84%
05:00 +16°C° 0 mm 2 m/s 745 mmHg 80%
06:00 +18°C° 0 mm 3 m/s 745 mmHg 76%
07:00 +19°C° 0 mm 3 m/s 745 mmHg 73%
08:00 +21°C° 0 mm 3 m/s 745 mmHg 66%
09:00 +22°C° 0 mm 3 m/s 745 mmHg 60%
10:00 +25°C° 0 mm 3 m/s 745 mmHg 53%
11:00 +26°C° 0.1 mm 3 m/s 745 mmHg 51%
12:00 +26°C° 0.1 mm 3 m/s 744 mmHg 48%
13:00 +27°C° 0.1 mm 2 m/s 744 mmHg 45%
14:00 +27°C° 0 mm 2 m/s 744 mmHg 44%
15:00 +27°C° 0 mm 2 m/s 744 mmHg 43%
16:00 +28°C° 0 mm 1 m/s 744 mmHg 42%
17:00 +26°C° 0 mm 1 m/s 743 mmHg 48%
18:00 +25°C° 0 mm 1 m/s 743 mmHg 53%
19:00 +24°C° 0 mm 1 m/s 743 mmHg 59%
20:00 +23°C° 0 mm 1 m/s 744 mmHg 62%
21:00 +21°C° 0 mm 1 m/s 744 mmHg 65%
22:00 +20°C° 0 mm 1 m/s 744 mmHg 68%
23:00 +19°C° 0 mm 2 m/s 744 mmHg 70%
Voir plus